Temperature
17 17 17 17 18 18 18 18 18 18 18 18 18 18 18 18 18 18 18 18 18 18 18 18 18 18 18 18 18 18 18 18 18 18 18 18 18 18 18 18 18 18 18
18 17 17 17 17 18 18 18 18 18 18 18 18 18 18 18 18 18 18 18 18 18 18 18 18 18 18 18 18 18 18 18 18 18 18 18 18 18 18 18 18 18 18
18 18 17 17 17 18 18 18 18 18 18 18 18 18 18 18 18 18 18 18 18 18 18 18 18 18 18 18 18 18 18 18 18 18 18 18 18 18 18 18 18 18 18
18 18 17 17 17 17 18 18 17 18 18 18 18 18 18 18 18 18 17 17 17 17 17 17 17 18 18 18 17 18 18 18 18 18 18 18 18 18 17 17 17 17 18
18 17 17 17 17 17 17 17 17 17 17 17 17 18 17 17 17 17 17 17 17 17 17 17 17 17 17 17 17 17 17 17 17 18 17 17 17 17 17 17 17 17 17
18 17 17 17 17 17 17 17 17 17 17 17 17 17 17 17 17 17 17 17 17 17 17 17 17 17 17 17 17 17 17 17 17 17 17 17 17 17 17 17 17 17 17
18 17 17 17 17 17 17 17 17 17 17 17 17 17 17 17 17 17 17 17 17 17 17 17 17 17 17 17 17 17 17 17 17 17 17 17 17 17 17 17 17 17 17
18 17 17 17 17 17 17 17 17 17 17 17 17 17 17 17 17 17 17 17 17 17 17 17 17 17 17 17 17 17 17 17 17 17 17 17 17 17 17 17 17 17 17
17 17 17 17 17 17 17 17 17 17 17 17 17 17 17 17 17 17 17 17 17 17 17 17 17 17 17 17 16 17 16 16 16 16 16 16 17 16 17 17 17 17 17
17 17 17 17 17 17 17 17 17 17 17 17 17 17 17 17 17 17 17 17 17 17 16 16 16 16 16 16 16 16 16 16 16 16 16 16 16 16 16 16 16 16 16
17 17 17 17 17 17 17 17 17 17 17 17 17 17 17 16 16 16 16 16 16 16 16 16 16 16 16 16 16 16 16 16 16 16 16 16 16 16 16 16 16 16 16
17 17 17 17 17 17 17 17 17 17 16 16 16 16 16 16 16 16 16 16 16 16 16 16 16 16 16 16 16 16 16 16 16 16 16 16 16 16 16 16 16 16 16
17 17 17 17 17 17 17 17 17 16 16 16 16 16 16 16 16 16 16 16 16 16 16 16 16 16 16 16 16 16 16 16 16 16 16 16 16 16 16 16 16 16 16
18 17 17 17 17 17 17 17 16 16 16 16 16 16 16 16 16 16 16 16 16 16 16 16 16 16 16 16 16 16 15 16 15 15 15 15 15 15 16 16 16 16 15
18 17 17 17 17 17 16 16 16 16 16 16 16 16 16 16 16 16 16 16 16 16 16 16 16 16 16 15 15 15 15 15 15 15 15 15 15 15 15 15 15 15 15
18 18 17 17 17 17 17 16 16 16 16 16 16 16 16 16 16 16 16 16 15 15 15 15 15 15 15 15 15 15 15 15 15 15 15 15 15 15 15 15 15 15 15
18 18 18 17 17 17 17 16 16 16 16 16 16 16 16 15 15 15 15 15 15 15 15 15 15 15 15 15 15 15 15 15 15 15 15 15 15 15 15 15 15 15 15
18 18 18 17 17 17 17 16 16 16 16 16 16 16 15 15 15 15 15 15 15 15 15 15 15 15 15 15 15 15 15 15 15 15 15 15 15 15 14 14 14 14 14
18 18 18 17 17 17 17 16 16 16 16 16 16 15 15 15 15 15 15 15 15 15 15 15 15 15 15 15 15 15 15 15 15 15 14 14 14 14 14 14 14 14 14
18 18 18 18 17 17 17 16 16 16 16 16 15 15 15 15 15 15 15 15 15 15 15 15 15 15 14 14 14 14 14 14 14 14 14 14 14 14 14 14 14 14 14
18 18 18 18 17 17 17 17 16 16 16 16 15 15 15 15 15 15 15 15 15 15 15 14 14 14 14 14 14 14 14 14 14 14 14 14 14 14 14 14 14 14 14
18 18 18 18 17 17 17 17 16 16 16 16 15 15 15 15 15 15 15 15 15 14 14 14 14 14 14 14 14 14 14 14 14 14 14 14 14 14 14 14 14 14 14
18 18 18 18 17 17 17 17 16 16 16 16 16 15 15 15 15 15 15 15 15 14 14 14 14 14 14 14 14 14 14 14 14 13 13 13 13 13 13 13 13 13 13
18 18 18 18 17 17 17 17 16 16 16 16 16 15 15 15 15 15 15 15 15 14 14 14 14 14 14 14 14 14 14 14 13 13 13 13 13 13 13 13 13 13 13
18 18 17 17 17 17 17 16 16 16 16 16 16 15 15 15 15 15 15 15 14 14 14 14 14 14 14 14 13 13 13 13 13 13 13 13 13 13 13 13 13 13 13
18 17 17 17 17 17 16 16 16 16 16 16 16 15 15 15 15 15 15 14 14 14 14 14 14 14 14 13 13 13 13 13 13 13 13 13 13 13 13 13 13 13 13
Wind_Speed
2 3 1 4 5 6 7 7 8 9 10 11 11 12 12 12 13 12 12 13 13 13 12 12 12 12 12 12 12 12 12 11 11 11 11 10 10 11 11 11 10 9 10
2 1 2 4 6 7 7 8 9 9 10 11 11 12 12 12 12 12 12 12 12 12 12 12 12 13 13 12 12 12 12 12 12 11 10 10 10 10 10 10 10 9 10
1 0 2 5 6 7 8 8 9 9 10 10 10 11 11 11 11 12 12 12 12 12 12 12 12 12 12 12 12 12 12 12 13 12 11 8 9 10 9 10 10 10 10
2 2 3 5 6 7 8 8 8 9 10 10 10 11 11 11 11 11 11 12 12 11 11 11 11 11 12 12 12 12 12 12 12 12 9 8 8 10 10 9 9 9 9
2 2 3 5 6 7 8 8 8 9 9 10 10 10 11 10 10 11 11 11 10 10 10 10 10 11 11 12 12 12 12 12 12 11 9 8 8 9 10 9 8 8 8
2 2 3 6 7 8 8 8 8 8 8 9 9 10 10 10 10 11 11 10 10 9 9 9 10 10 11 11 12 12 12 12 11 10 9 8 8 10 10 10 9 8 8
2 3 3 6 7 7 8 8 8 8 8 8 9 9 9 10 10 10 10 10 9 9 9 9 9 11 11 11 11 12 12 12 10 9 8 7 8 10 10 10 9 8 8
3 3 4 5 6 6 7 7 7 7 7 7 8 9 9 10 10 10 10 10 9 9 9 9 10 10 10 11 11 12 12 10 9 8 7 7 8 9 10 9 9 8 8
3 4 4 5 5 5 5 6 6 7 7 7 8 9 9 9 10 10 10 10 10 10 11 10 10 10 11 11 11 11 11 11 9 6 6 6 8 9 9 9 9 9 8
3 3 3 4 5 5 4 5 6 7 8 8 9 9 9 9 9 9 10 10 10 11 12 12 11 11 11 11 11 11 11 10 8 7 6 6 8 9 9 9 10 10 9
2 2 2 3 4 5 5 5 6 7 8 8 8 9 9 9 8 8 9 10 11 11 12 12 12 11 12 11 11 11 10 8 8 7 6 7 8 8 9 9 9 10 10
2 0 1 2 3 5 5 6 7 7 7 8 7 7 7 8 8 8 9 10 11 11 12 12 12 11 10 9 9 9 8 8 8 6 7 9 8 9 9 9 9 10 11
2 1 2 2 3 3 4 5 5 5 5 6 6 7 7 7 8 8 8 8 9 10 10 10 10 9 8 7 7 7 7 7 7 7 8 9 9 10 10 10 11 11 11
3 2 2 3 2 2 3 4 3 3 3 3 4 5 5 4 5 5 5 6 7 7 7 7 7 8 8 8 7 7 7 6 6 7 8 9 9 9 10 10 10 11 11
4 3 3 3 3 2 3 2 3 2 2 3 3 4 5 4 3 4 4 5 6 6 6 5 5 6 6 6 7 7 6 6 7 7 7 9 9 9 9 9 10 10 10
4 4 3 4 3 3 2 2 1 2 2 3 3 3 4 4 4 3 3 4 4 5 5 5 5 4 4 4 5 6 6 6 6 7 7 7 9 9 8 8 9 9 9
4 4 4 5 4 4 3 2 2 2 3 2 2 3 4 5 5 4 3 3 3 5 6 6 5 5 4 4 4 5 5 5 6 6 6 6 6 8 9 8 8 8 8
4 4 4 4 5 4 3 3 2 2 3 2 2 3 4 4 5 4 3 2 3 4 4 3 3 4 4 4 3 3 4 4 5 6 7 7 6 6 8 8 8 8 7
4 4 3 3 4 4 3 3 3 3 3 2 2 3 3 4 5 5 3 2 4 3 3 3 3 3 3 3 3 3 3 3 4 5 6 6 7 7 7 8 8 8 7
4 4 4 3 4 4 3 3 2 2 2 2 2 2 3 3 4 5 3 3 4 3 2 3 3 3 2 2 3 4 3 3 3 3 4 5 6 6 7 7 7 7 8
3 3 4 4 3 3 2 2 2 1 1 1 1 1 2 3 4 4 3 2 3 2 2 3 2 3 2 2 3 3 3 3 3 3 3 3 4 5 6 6 6 6 6
4 3 4 4 4 3 3 2 2 2 1 1 1 1 1 2 3 4 3 3 2 2 2 2 2 2 1 2 2 2 2 3 3 3 3 2 3 3 4 5 5 5 5
4 5 4 4 4 3 3 3 3 3 2 1 1 0 0 2 3 3 3 3 3 3 3 2 2 3 1 1 2 3 2 2 1 2 2 3 2 2 3 3 4 4 4
5 4 4 4 3 3 4 4 4 3 2 3 2 1 1 1 2 3 3 3 3 3 3 3 2 2 3 1 1 1 2 3 2 1 2 2 2 2 2 2 2 3 4
5 4 4 4 4 3 3 4 4 3 2 1 0 1 1 0 1 2 3 3 3 2 3 3 2 2 2 3 2 2 2 2 2 2 1 2 2 2 2 2 1 2 2
3 3 3 4 4 3 4 4 4 4 2 2 1 1 1 1 1 1 3 3 3 2 3 3 3 3 2 2 2 2 3 2 2 2 2 1 2 2 2 2 1 1 2
Wind_Direction
282 287 338 69 74 80 78 78 81 80 82 83 82 83 86 89 91 93 91 90 88 87 87 88 87 86 87 86 85 85 85 84 86 88 92 95 100 106 109 111 109 105 109
219 280 84 81 81 81 76 77 81 82 81 82 84 84 84 88 90 91 92 92 90 87 87 85 84 83 85 84 84 85 83 81 80 83 87 88 93 103 107 112 112 109 113
134 53 93 91 89 84 78 78 81 82 82 82 83 84 85 87 89 90 90 92 91 89 88 86 83 82 83 83 83 84 82 80 78 78 75 74 84 91 99 107 111 113 113
120 86 98 100 98 94 84 78 81 84 86 84 83 83 83 85 89 91 90 89 90 89 87 84 81 81 83 82 82 81 81 81 79 76 68 67 75 85 87 97 106 109 110
94 79 98 102 101 101 96 88 84 84 87 86 84 83 83 84 88 91 90 88 90 90 89 86 83 81 81 81 79 79 80 81 80 74 70 68 70 81 83 86 90 96 103
91 73 92 102 100 103 101 98 92 89 88 89 87 86 85 85 86 86 85 86 88 90 89 87 85 82 80 80 78 77 78 79 77 74 70 70 72 80 84 86 86 90 98
100 69 74 91 95 99 99 98 96 92 91 91 88 87 86 83 81 83 82 81 83 85 85 83 82 81 79 79 79 78 77 79 77 72 67 68 72 77 79 81 82 89 99
106 75 69 85 89 97 99 100 97 95 95 92 87 86 83 81 80 83 84 83 80 80 81 81 81 81 80 80 79 77 75 76 73 70 65 66 71 75 76 75 76 81 93
84 74 55 60 71 84 95 96 95 96 94 90 87 85 81 78 78 81 81 81 78 76 77 78 78 78 80 80 76 75 74 73 70 64 65 64 71 74 74 75 74 75 85
68 64 54 49 52 53 66 90 97 93 90 85 81 79 77 73 71 74 76 78 78 77 76 75 73 73 73 75 75 74 74 70 63 62 57 64 72 75 75 75 74 71 76
81 54 55 48 43 46 55 84 90 87 80 76 72 74 71 60 58 62 70 73 73 76 74 71 69 69 66 66 70 69 66 63 61 58 59 65 69 71 71 73 74 73 73
172 116 69 61 46 45 59 68 71 73 70 68 68 70 67 62 61 64 65 67 68 72 72 69 67 64 60 56 59 61 56 55 55 50 57 65 66 67 69 73 75 75 74
184 155 129 107 67 60 59 66 67 69 67 65 69 70 68 61 58 56 54 54 58 62 62 62 60 57 57 58 60 61 55 54 48 43 48 58 63 66 69 74 76 76 76
172 177 151 127 102 79 76 72 75 74 69 63 64 70 69 59 53 52 55 54 55 60 62 60 62 61 58 57 61 62 56 54 47 40 45 55 62 68 72 74 75 75 75
185 184 166 145 136 114 96 89 89 83 79 74 72 74 81 78 67 63 62 62 61 65 67 62 63 61 55 53 56 59 54 49 47 44 37 49 58 65 70 72 75 75 74
189 189 172 159 150 132 125 117 104 97 88 79 75 85 97 99 92 82 71 64 62 68 71 74 73 71 59 58 55 53 51 46 47 46 41 43 50 56 61 65 67 72 75
189 183 175 167 148 143 138 134 121 119 114 99 97 103 106 113 110 100 87 72 63 75 78 78 72 71 65 58 52 48 50 43 45 44 42 41 41 47 54 59 61 66 68
172 173 180 171 151 149 141 127 114 113 113 105 112 116 119 123 125 109 98 86 84 84 84 81 71 73 62 55 52 42 42 41 43 44 45 41 42 40 42 50 56 59 61
167 167 165 154 154 152 134 112 102 96 90 91 105 118 130 134 135 125 114 103 97 85 73 82 66 82 83 67 66 50 37 38 34 47 42 41 44 45 42 41 45 49 54
153 153 149 149 150 137 119 100 83 77 72 72 86 115 130 135 140 133 125 116 107 94 77 78 75 66 84 81 76 54 34 34 39 41 39 40 44 46 46 45 40 38 45
143 143 152 157 157 137 124 137 138 155 142 102 92 119 134 139 143 141 132 123 114 118 121 115 102 79 60 70 77 45 20 30 47 41 38 41 36 41 49 48 46 43 37
166 166 165 169 160 163 164 156 151 142 145 163 77 71 122 150 153 152 149 154 141 126 116 117 111 97 69 71 105 91 26 358 11 25 31 47 31 37 41 42 48 45 40
176 179 180 179 169 171 155 120 92 69 48 44 27 262 319 166 168 159 155 151 154 153 163 163 143 131 132 48 83 131 135 221 314 348 18 28 20 32 25 30 41 38 36
200 183 171 166 159 161 156 150 148 157 184 215 210 213 218 161 159 161 158 156 161 163 170 181 159 148 140 143 80 75 132 155 148 333 343 360 10 24 11 17 27 28 31
192 177 175 157 155 158 155 160 154 161 189 197 186 194 210 162 147 158 160 152 165 172 177 176 159 159 154 156 156 139 107 81 107 146 251 324 349 349 351 354 357 2 14
173 166 163 157 167 164 162 159 165 172 162 143 175 200 223 218 197 183 171 166 171 175 181 185 174 168 170 161 158 154 153 156 170 159 183 238 286 307 328 330 323 319 343
Height
1516 1515 1515 1515 1515 1514 1514 1514 1514 1514 1514 1514 1514 1514 1514 1514 1514 1514 1515 1515 1515 1515 1515 1516 1516 1516 1516 1517 1517 1517 1517 1517 1517 1517 1517 1518 1518 1519 1520 1521 1522 1523 1524
1517 1516 1516 1516 1516 1515 1515 1515 1516 1516 1516 1516 1516 1516 1516 1516 1516 1516 1516 1517 1517 1517 1518 1518 1518 1518 1518 1518 1519 1519 1519 1519 1519 1518 1519 1520 1520 1521 1522 1523 1524 1524 1526
1518 1517 1517 1517 1517 1517 1517 1517 1517 1517 1517 1517 1517 1518 1518 1518 1518 1518 1518 1519 1519 1519 1519 1520 1520 1520 1520 1520 1520 1520 1521 1520 1520 1520 1521 1521 1522 1523 1524 1524 1525 1526 1527
1519 1519 1518 1518 1518 1518 1518 1518 1518 1519 1519 1519 1519 1519 1519 1519 1520 1520 1520 1521 1521 1521 1521 1522 1522 1522 1522 1522 1522 1522 1522 1522 1522 1522 1523 1523 1524 1525 1525 1525 1526 1528 1528
1520 1520 1520 1520 1519 1519 1519 1520 1520 1520 1521 1521 1521 1521 1521 1521 1521 1522 1522 1522 1522 1523 1523 1523 1524 1524 1524 1524 1524 1524 1524 1524 1525 1525 1525 1526 1526 1526 1527 1526 1528 1529 1529
1521 1521 1521 1521 1521 1521 1521 1521 1521 1522 1522 1522 1522 1523 1523 1523 1523 1523 1524 1524 1524 1524 1525 1525 1525 1526 1526 1526 1526 1526 1526 1526 1526 1527 1527 1527 1528 1528 1528 1529 1529 1530 1530
1522 1522 1522 1522 1522 1522 1522 1522 1523 1523 1523 1524 1524 1524 1524 1525 1525 1525 1525 1525 1526 1526 1526 1526 1527 1527 1527 1528 1528 1528 1528 1528 1528 1529 1529 1529 1530 1530 1530 1530 1530 1531 1531
1523 1523 1523 1523 1523 1523 1523 1523 1524 1524 1525 1525 1525 1526 1526 1526 1526 1526 1527 1527 1527 1528 1528 1528 1528 1529 1529 1529 1530 1530 1530 1530 1530 1530 1531 1531 1531 1531 1531 1531 1531 1532 1532
1525 1525 1525 1525 1524 1524 1524 1524 1524 1525 1526 1526 1527 1527 1528 1528 1528 1528 1529 1529 1529 1529 1529 1530 1530 1530 1531 1531 1531 1532 1532 1532 1532 1532 1532 1533 1533 1532 1532 1532 1532 1533 1533
1526 1526 1526 1526 1525 1524 1523 1523 1524 1526 1527 1528 1529 1529 1529 1530 1530 1530 1530 1530 1531 1531 1531 1531 1531 1532 1532 1532 1533 1533 1533 1534 1534 1534 1534 1534 1534 1534 1534 1534 1534 1534 1534
1527 1527 1527 1527 1526 1525 1523 1523 1525 1527 1529 1530 1530 1531 1531 1531 1532 1532 1532 1532 1532 1533 1533 1533 1533 1533 1534 1534 1534 1534 1535 1535 1535 1535 1535 1535 1535 1535 1535 1535 1535 1535 1535
1528 1529 1529 1529 1528 1526 1525 1526 1528 1529 1531 1532 1532 1533 1533 1533 1533 1534 1534 1534 1534 1535 1535 1535 1535 1535 1535 1535 1536 1536 1536 1536 1537 1537 1537 1537 1537 1537 1536 1536 1536 1536 1536
1529 1530 1530 1530 1530 1529 1529 1529 1530 1532 1532 1533 1534 1534 1535 1535 1535 1535 1536 1536 1536 1536 1536 1536 1537 1537 1537 1537 1537 1537 1538 1538 1538 1538 1539 1539 1538 1538 1538 1538 1538 1538 1537
1530 1531 1531 1532 1532 1532 1532 1532 1533 1533 1534 1535 1535 1536 1536 1536 1537 1537 1537 1537 1538 1538 1538 1538 1538 1538 1539 1539 1539 1539 1539 1540 1540 1540 1540 1540 1540 1540 1539 1539 1539 1539 1539
1530 1531 1532 1533 1533 1533 1534 1534 1535 1535 1536 1536 1537 1537 1538 1538 1538 1538 1539 1539 1539 1539 1539 1540 1540 1540 1540 1540 1541 1541 1541 1541 1541 1541 1541 1541 1541 1541 1541 1541 1541 1540 1540
1531 1532 1533 1534 1534 1535 1535 1536 1536 1537 1537 1538 1538 1538 1539 1539 1539 1540 1540 1540 1540 1540 1540 1541 1541 1541 1541 1541 1542 1542 1542 1542 1542 1542 1542 1542 1542 1542 1542 1542 1542 1541 1541
1531 1532 1533 1534 1535 1536 1536 1537 1537 1538 1538 1539 1539 1539 1540 1540 1540 1541 1541 1541 1541 1541 1541 1541 1541 1542 1542 1542 1543 1543 1543 1543 1543 1543 1543 1543 1543 1543 1543 1543 1542 1542 1542
1531 1533 1534 1534 1535 1536 1537 1537 1538 1538 1539 1539 1540 1540 1540 1541 1541 1541 1541 1541 1542 1542 1542 1542 1542 1542 1542 1543 1543 1543 1543 1544 1544 1544 1544 1544 1544 1543 1543 1543 1543 1543 1543
1531 1532 1534 1535 1536 1536 1537 1538 1538 1539 1539 1539 1540 1540 1541 1541 1542 1542 1542 1542 1542 1542 1542 1542 1542 1542 1542 1543 1543 1543 1544 1544 1544 1545 1544 1544 1544 1544 1544 1544 1544 1543 1543
1531 1532 1533 1534 1535 1536 1537 1538 1538 1538 1539 1539 1540 1540 1541 1541 1542 1542 1542 1542 1542 1542 1542 1542 1543 1543 1543 1543 1543 1543 1544 1544 1544 1545 1545 1544 1544 1544 1544 1544 1544 1544 1543
1530 1531 1532 1534 1535 1536 1536 1537 1538 1538 1539 1539 1540 1540 1541 1541 1542 1542 1542 1542 1542 1542 1542 1542 1542 1543 1543 1543 1543 1543 1544 1544 1544 1545 1545 1544 1544 1544 1544 1544 1544 1544 1543
1528 1530 1531 1532 1534 1535 1536 1536 1537 1538 1538 1539 1540 1540 1541 1541 1541 1542 1542 1542 1542 1542 1542 1542 1542 1542 1542 1543 1543 1543 1544 1545 1544 1544 1544 1544 1544 1544 1544 1544 1544 1544 1543
1526 1528 1529 1531 1532 1534 1535 1536 1536 1537 1538 1538 1539 1539 1540 1540 1540 1541 1541 1542 1541 1541 1541 1542 1542 1542 1542 1542 1543 1543 1543 1543 1544 1544 1544 1544 1544 1544 1544 1544 1544 1544 1543
1524 1526 1528 1529 1531 1532 1533 1534 1535 1535 1536 1537 1537 1538 1538 1539 1539 1540 1540 1541 1541 1541 1541 1541 1541 1541 1541 1541 1542 1542 1543 1543 1543 1543 1544 1544 1544 1544 1544 1543 1543 1543 1543
1523 1524 1526 1528 1529 1530 1531 1532 1533 1534 1535 1535 1536 1536 1537 1537 1537 1538 1539 1539 1539 1540 1540 1540 1540 1540 1541 1541 1541 1541 1541 1542 1542 1542 1542 1543 1543 1543 1543 1543 1542 1542 1542
1521 1523 1524 1526 1527 1528 1529 1530 1531 1532 1532 1533 1533 1534 1534 1535 1535 1536 1537 1537 1537 1538 1538 1538 1539 1539 1539 1540 1540 1540 1540 1541 1541 1541 1541 1541 1541 1542 1542 1542 1541 1541 1541